Powrót do katalogu

IRIDIUM 33 DEB

AktywnyPO
NORAD 35929·DEBRIS·🇺🇸 United States

Wystrzelony Sep 14, 1997 z Baikonur Cosmodrome

Loading…

Następne Przeloty (najbliższe 24 godziny)

TLE

ŚwieżeSource: Space-Track

Epoka: Sep 14, 2026, 12:40 UTC

1 35929U 97051UN  26257.52793499  .00049136  00000-0  19234-2 0  9994
2 35929  86.3422 179.7792 0015030  79.2047 281.0890 15.25507962919521

Śledź IRIDIUM 33 DEB w czasie rzeczywistym z AllMySat

Download on the App Store